Weather History for Arequipa, Peru

Change the Weather History Date:

Wednesday, February 13, 2013

  Actual Average Record
Temperature  
Mean Temperature 57 °F -  
Max Temperature 68 °F 73 °F 75 °F (1998)
Min Temperature 46 °F 48 °F 46 °F (2013)
Degree Days  
Heating Degree Days 8    
Growing Degree Days 7 (Base 50)    
Moisture  
Dew Point 46 °F    
Average Humidity 70    
Maximum Humidity 94    
Minimum Humidity 36    
Precipitation  
Precipitation 0.00 in 0.04 in - ()
Sea Level Pressure  
Sea Level Pressure 30.28 in    
Wind  
Wind Speed 5 mph ()    
Max Wind Speed 16 mph    
Max Gust Speed -    
Visibility 6.1 miles    
Events      
Averages and records for this station are not official NWS values.
T = Trace of Precipitation, MM = Missing Value Source: Averaged Metar Reports

Daily Weather History Graph

Daily Weather History Graph

Search for Another Location

Airport:

Trip Planner

Search our weather history database for the weather conditions in past years. The results will help you decide how hot, cold, wet, or windy it might be!

Date:

Astronomy

Feb. 13, 2013 Rise Set
Actual Time 5:41 AM PET 6:19 PM PET
Civil Twilight 5:18 AM PET 6:41 PM PET
Nautical Twilight 4:52 AM PET 7:08 PM PET
Astronomical Twilight 4:26 AM PET 7:34 PM PET
Moon 8:36 AM PET (2/13) 8:41 PM PET (2/13)
Length of Visible Light 13h 23m
Length of Day
12h 38m
Waxing Crescent, 13% of the Moon is Illuminated
Feb 13
Waxing Crescent
Feb 17
First Quarter
Feb 25
Full
Mar 4
Last Quarter
Mar 11
New

Hourly Weather History & Observations

Time (PET) Temp. Windchill Dew Point Humidity Pressure Visibility Wind Dir Wind Speed Gust Speed Precip Events Conditions
12:00 AM 51.8 °F - 50.0 °F 94% 30.30 in - NE 6.9 mph - N/A   Clear
1:00 AM 50 °F - 47 °F 88%  in 6 mi Calm Calm - -  
1:00 AM 50.0 °F - 48.2 °F 94% 30.27 in - Calm Calm - N/A   Clear
2:00 AM 48.2 °F - 44.6 °F 87% 30.24 in - Calm Calm - N/A   Clear
3:00 AM 50.0 °F - 46.4 °F 87% 30.24 in - NW 6.9 mph - N/A   Clear
4:00 AM 48 °F - 43 °F 78%  in 6 mi Calm Calm - -  
4:00 AM 48.2 °F - 42.8 °F 82% 30.24 in - Calm Calm - N/A   Clear
5:00 AM 48.2 °F - 41.0 °F 76% 30.24 in - North 4.6 mph - N/A   Clear
6:00 AM 46.4 °F 43.5 °F 41.0 °F 81% 30.24 in - North 5.8 mph - N/A   Clear
7:00 AM 53 °F - 44 °F 64%  in 6 mi North 4.6 mph - -  
7:00 AM 53.6 °F - 44.6 °F 72% 30.27 in - North 4.6 mph - N/A   Clear
8:00 AM 55.4 °F - 44.6 °F 67% 30.27 in - West 4.6 mph - N/A   Clear
9:00 AM 59.0 °F - 46.4 °F 63% 30.30 in - SW 4.6 mph - N/A   Clear
10:00 AM 62 °F - 43 °F 39%  in 6 mi WSW 4.6 mph - -  
10:00 AM 62.6 °F - 42.8 °F 48% 30.30 in - Variable 4.6 mph - N/A   Clear
11:00 AM 66.2 °F - 44.6 °F 46% 30.30 in - SSW 8.1 mph - N/A   Clear
12:00 PM 64.4 °F - 42.8 °F 45% 30.30 in 6.2 mi West 11.5 mph - N/A   Partly Cloudy
1:00 PM 66 °F - 45 °F 36%  in 6 mi West 8.1 mph - -  
1:00 PM 66.2 °F - 44.6 °F 46% 30.27 in 6.2 mi West 8.1 mph - N/A   Partly Cloudy
2:00 PM 68.0 °F - 46.4 °F 46% 30.24 in 6.2 mi WSW 13.8 mph - N/A   Partly Cloudy
3:00 PM 64.4 °F - 48.2 °F 56% 30.24 in 6.2 mi West 16.1 mph - N/A   Scattered Clouds
4:00 PM 64 °F - 50 °F 50%  in 6 mi WSW 13.8 mph - -  
4:00 PM 64.4 °F - 50.0 °F 59% 30.24 in 6.2 mi WSW 13.8 mph - N/A   Scattered Clouds
5:00 PM 60.8 °F - 50.0 °F 68% 30.24 in 6.2 mi West 16.1 mph - N/A   Scattered Clouds
6:00 PM 57.2 °F - 50.0 °F 77% 30.27 in 6.2 mi West 15.0 mph - N/A   Scattered Clouds
7:00 PM 55 °F - 49 °F 74%  in 6 mi West 11.5 mph - -  
7:00 PM 55.4 °F - 48.2 °F 77% 30.30 in 6.2 mi West 11.5 mph - N/A   Scattered Clouds
8:00 PM 53.6 °F - 50.0 °F 88% 30.30 in 6.2 mi West 6.9 mph - N/A   Scattered Clouds
9:00 PM 51.8 °F - 50.0 °F 94% 30.33 in 6.2 mi Calm Calm - N/A   Scattered Clouds
10:00 PM 53 °F - 49 °F 84%  in 6 mi SE 4.6 mph - -  
10:00 PM 53.6 °F - 50.0 °F 88% 30.33 in - SE 4.6 mph - N/A   Clear
11:00 PM 51.8 °F - 50.0 °F 94% 30.33 in - Calm Calm - N/A   Clear